This demonstration page uses our WeatherBlox Daily Observations layout. Learn more.

Hourly Observations for February 23, 2020

Temp ( °F °C ) Dew Point ( °F °C ) Humidity (%) Winds ( mph kmh ) Pressure ( in mb ) Visibility ( mi km ) Precip ( " mm )
12:54 am 00:54 Clear 32 0 26 -3.3 79 79 Calm 29.97 1015 10 16.0934 0 0
1:54 am 01:54 Clear 26 -3.3 24 -4.4 92 92 N 3 6 29.97 1015 10 16.0934 0 0
2:54 am 02:54 Clear 26 -3.3 22 -5.6 84 84 Calm 29.96 1015 10 16.0934 0 0
3:54 am 03:54 Clear 25 -3.9 21 -6.1 85 85 N 5 7 29.96 1015 10 16.0934 0 0
4:54 am 04:54 Clear 26 -3.3 23 -5 88 88 N 7 11 29.97 1015 9 14.48406 0 0
5:54 am 05:54 Clear 28 -2.2 23 -5 81 81 Calm 29.98 1015 10 16.0934 0 0
6:54 am 06:54 Clear 26 -3.3 22 -5.6 84 84 Calm 30 1016 10 16.0934 0 0
7:54 am 07:54 Sunny 28 -2.2 24 -4.4 85 85 Calm 30 1016 10 16.0934 0 0
8:54 am 08:54 Sunny 33 0.6 28 -2.2 82 82 NNW 6 9 30.04 1017 9 14.48406 0 0
9:54 am 09:54 Sunny 39 3.9 30 -1.1 70 70 N 3 6 30.03 1017 10 16.0934 0 0
10:54 am 10:54 Sunny 44 6.7 32 0 63 63 Calm 30.03 1017 10 16.0934 0 0
11:54 am 11:54 Sunny 47 8.3 31 -0.6 54 54 Calm 30.02 1017 10 16.0934 0 0
12:54 pm 12:54 Sunny 51 10.6 31 -0.6 46 46 E 3 6 29.99 1016 10 16.0934 0 0
1:54 pm 13:54 Sunny 56 13.3 28 -2.2 34 34 ENE 6 9 29.97 1015 10 16.0934 0 0
2:54 pm 14:54 Sunny 57 13.9 27 -2.8 32 32 ENE 7 11 29.96 1015 10 16.0934 0 0
3:54 pm 15:54 Sunny 57 13.9 23 -5 27 27 ENE 9 15 29.96 1015 10 16.0934 0 0
4:54 pm 16:54 Sunny 54 12.2 27 -2.8 35 35 E 7 11 29.96 1015 10 16.0934 0 0
5:54 pm 17:54 Sunny 46 7.8 27 -2.8 47 47 NE 8 13 29.98 1015 10 16.0934 0 0
6:54 pm 18:54 Clear 49 9.4 31 -0.6 50 50 NNE 13 20 29.99 1016 10 16.0934 0 0
7:54 pm 19:54 Clear 47 8.3 32 0 56 56 NNE 13 20 29.98 1015 10 16.0934 0 0
8:54 pm 20:54 Mostly Cloudy 45 7.2 32 0 61 61 NNE 13 20 29.98 1015 10 16.0934 0 0
9:54 pm 21:54 Cloudy 43 6.1 31 -0.6 63 63 NNE 21 33 29.95 1014 10 16.0934 0 0
10:54 pm 22:54 Cloudy 41 5 31 -0.6 67 67 NNE 10 17 29.97 1015 10 16.0934 0 0
11:54 pm 23:54 Mostly Clear 39 3.9 29 -1.7 67 67 NNE 13 20 29.95 1014 10 16.0934 0 0

Powered by AerisWeather